Wind_Speed
0 1 1 1 2 2 3 3 4 4 4 4 5 6 6 6 7 7 8 8 8 8 8 8 9 9 9 9 9 9 8 8 8 7 7 7 6 6 6 5 5 5 5 5 5 5 5 5 4
1 1 1 2 2 3 3 4 3 4 4 5 5 6 6 6 7 7 8 8 8 8 9 9 9 10 10 10 10 10 10 9 9 8 8 8 8 7 7 6 6 6 6 6 6 6 6 6 5
1 2 2 2 3 3 3 4 3 4 4 5 5 5 6 6 7 8 8 8 8 9 9 10 10 11 11 11 11 11 10 10 9 8 8 9 9 8 8 8 8 7 7 7 7 7 7 7 6
2 2 2 2 2 3 3 4 3 3 4 5 5 5 5 6 6 7 8 8 8 9 10 10 11 11 11 12 12 12 11 11 10 9 9 9 9 9 9 9 9 8 8 8 8 8 8 8 8
2 2 3 2 3 3 4 4 4 4 4 4 4 4 4 5 5 6 7 8 8 9 9 10 10 11 12 12 13 13 12 11 11 10 10 10 10 10 10 10 10 9 9 9 9 9 10 9 9
3 3 3 3 3 3 4 4 4 4 5 5 4 4 4 4 4 5 6 6 7 7 8 9 9 10 11 12 12 13 13 12 11 11 11 11 11 11 11 11 11 10 10 10 10 10 10 10 10
3 4 4 4 4 4 4 5 5 5 5 5 4 4 4 4 5 5 5 6 6 6 7 8 8 9 9 9 10 10 12 12 11 11 11 11 11 12 12 12 11 11 10 10 11 11 10 11 11
4 4 5 5 5 5 5 5 5 5 5 5 5 4 4 4 5 5 5 5 6 6 6 7 7 8 8 8 8 9 10 11 10 10 11 11 12 12 13 12 12 12 12 12 12 12 12 12 12
4 4 5 5 6 5 5 5 6 6 6 5 5 5 4 5 5 5 5 5 5 5 5 6 7 7 7 7 8 8 9 10 9 10 10 10 11 12 13 13 13 13 12 12 12 12 12 13 13
5 5 5 5 6 6 6 6 6 6 6 6 6 6 5 5 5 5 5 5 5 5 5 6 6 6 6 6 7 7 7 8 9 9 10 10 11 11 12 12 13 13 13 13 12 12 13 13 13
5 5 5 5 6 6 6 6 6 6 6 7 7 6 6 6 6 6 6 6 6 5 5 5 5 5 6 6 6 7 7 8 8 9 10 10 10 10 11 11 12 13 13 13 13 14 14 14 14
5 5 6 6 6 6 7 7 7 7 7 7 7 7 7 7 7 7 6 6 6 6 5 6 5 5 5 6 6 6 7 8 8 9 10 10 10 10 10 10 11 11 12 13 14 14 14 15 15
5 5 5 6 6 7 7 7 8 8 7 7 7 7 7 7 7 7 7 6 6 6 6 6 6 6 6 6 6 6 7 8 9 9 10 10 10 10 11 11 11 11 12 12 12 13 14 14 14
6 6 6 6 7 7 8 8 8 8 8 7 7 8 7 7 7 7 7 6 6 6 6 6 6 6 6 7 7 7 8 9 9 9 9 10 10 10 10 11 12 12 12 11 12 12 13 14 14
6 6 6 6 6 7 7 8 8 8 8 8 7 8 7 7 7 7 7 6 6 6 6 7 7 7 7 7 7 8 8 8 9 9 9 9 10 10 11 11 11 12 12 11 11 11 12 13 13
6 6 6 6 6 7 7 8 8 8 8 8 8 8 7 7 7 7 7 7 7 7 7 7 7 7 8 8 8 8 9 9 9 9 9 9 9 10 10 10 11 11 11 11 11 11 11 11 12
6 6 6 7 7 7 8 8 7 9 9 8 8 8 8 7 8 7 8 7 7 7 7 7 8 8 8 8 8 8 8 9 9 9 10 10 10 10 10 11 11 11 11 11 10 10 10 11 11
6 7 8 9 8 8 9 9 8 9 9 9 9 9 9 8 9 8 8 8 8 8 8 8 8 8 8 8 9 9 9 9 9 9 10 10 11 11 11 11 11 11 11 11 11 11 10 10 11
7 8 9 9 9 9 9 10 10 10 9 9 10 10 10 10 10 9 9 8 8 9 9 9 8 8 9 9 9 9 9 9 10 10 10 10 10 10 10 10 10 10 10 10 11 11 11 11 10
9 10 10 9 10 10 9 10 10 10 10 10 10 10 10 11 11 10 10 9 9 10 10 9 9 9 9 9 9 9 10 10 10 11 11 10 10 10 11 11 11 11 11 11 11 11 11 11 11
10 10 10 10 9 10 10 10 10 10 10 11 11 11 11 11 12 11 11 10 11 11 11 11 10 10 10 10 11 11 11 11 11 12 12 12 12 12 12 12 12 12 12 12 12 12 12 12 12
10 10 10 10 9 9 9 10 10 11 12 12 11 12 12 11 12 12 12 12 12 12 12 12 11 11 11 12 12 12 13 13 13 13 13 13 14 14 14 13 13 14 14 14 14 14 14 13 13
10 10 10 10 9 10 10 11 12 12 12 12 11 11 12 12 13 13 12 12 12 12 13 13 12 12 13 13 14 14 14 15 15 14 15 15 15 15 15 15 15 15 15 15 15 14 14 14 14
10 10 10 10 10 10 11 12 13 13 13 13 12 12 13 13 14 13 13 13 14 13 14 14 14 14 14 15 15 16 16 16 16 16 16 16 16 16 15 15 16 15 15 16 15 15 16 15 16
11 10 10 9 9 10 12 14 14 14 14 14 14 14 14 14 14 14 14 14 15 15 15 15 15 15 16 16 16 16 17 17 17 17 17 16 16 16 16 16 17 17 17 17 17 17 17 17 17
13 12 12 11 10 12 13 15 16 16 16 16 16 15 15 16 15 15 15 16 16 16 16 16 16 16 16 16 16 17 18 18 18 18 18 18 18 17 17 17 18 18 18 18 17 17 18 18 18
14 13 13 13 12 12 13 15 16 16 17 17 16 16 16 16 16 16 16 17 18 18 18 17 17 17 17 18 18 18 18 19 19 19 19 19 18 18 18 18 18 19 19 19 19 19 19 19 19
15 15 14 15 14 13 13 16 17 16 17 18 18 18 17 17 17 17 17 18 18 19 19 19 19 19 19 19 19 20 19 19 20 20 20 19 19 20 20 19 19 19 19 20 20 20 20 20 20
17 17 17 17 16 15 16 17 18 18 18 19 20 20 19 19 18 18 18 18 19 20 20 20 20 20 20 20 20 20 20 20 20 20 21 20 20 21 21 21 21 21 21 21 21 21 21 21 21
17 18 18 18 18 18 18 20 20 19 18 19 20 21 20 21 20 20 19 19 20 20 21 21 20 20 20 20 20 21 20 20 21 21 22 22 21 21 21 21 22 22 22 22 22 22 22 22 22
Wind_Direction
236 221 237 240 259 261 265 275 272 276 273 261 255 250 249 250 252 252 248 245 243 242 240 237 239 241 241 242 244 243 236 234 235 235 234 232 232 235 235 231 233 231 232 225 220 221 222 217 215
241 248 257 262 267 269 274 279 274 272 269 263 258 255 253 255 257 258 253 249 247 246 244 242 243 244 244 245 247 246 242 240 242 242 239 238 240 243 245 242 243 244 243 237 232 237 234 230 226
234 252 258 267 271 278 288 282 278 273 268 264 260 257 256 257 258 260 258 254 251 248 247 247 246 247 248 247 246 246 246 246 247 246 244 244 243 244 248 248 248 249 251 250 241 241 241 239 239
237 259 258 267 282 289 292 286 283 278 270 267 266 264 262 260 259 259 259 256 253 251 248 248 250 252 254 252 249 248 249 250 249 248 245 245 246 247 248 250 247 250 251 250 247 243 246 244 246
236 253 262 274 284 294 291 290 287 279 277 276 272 269 265 259 259 260 260 258 256 254 254 253 255 255 256 255 251 249 249 250 249 249 247 247 248 248 249 251 250 252 252 252 252 250 249 249 250
244 253 263 276 282 285 284 284 286 285 285 282 276 273 269 266 265 268 267 265 261 258 257 257 256 260 260 259 255 250 245 246 247 249 249 249 250 252 252 251 250 251 253 252 253 257 254 252 253
249 256 257 263 272 268 272 281 289 295 293 292 287 281 280 281 276 276 274 274 274 268 263 262 262 265 265 259 254 245 242 244 248 250 252 252 251 251 251 252 251 250 250 252 254 258 258 258 257
253 258 260 263 265 265 269 277 283 287 291 295 297 292 286 285 283 280 279 277 275 272 268 264 265 267 268 261 249 246 244 244 249 251 254 255 253 249 249 250 252 253 253 254 256 257 259 258 259
255 251 255 264 270 271 272 272 278 283 287 287 286 285 287 285 283 283 282 281 280 280 276 271 270 272 269 262 255 253 252 248 248 252 256 257 256 252 248 250 249 253 255 256 256 257 258 260 260
261 256 264 270 272 271 272 273 274 278 279 280 281 279 280 282 284 284 282 283 285 286 283 277 277 277 275 274 263 259 251 251 252 254 255 257 257 255 253 256 256 256 257 257 258 260 261 264 262
267 260 269 267 267 268 270 270 270 276 279 278 280 281 280 282 282 279 280 283 284 287 285 285 288 288 282 277 268 262 260 257 256 252 250 256 262 261 258 258 259 260 260 260 261 262 264 264 261
261 263 262 260 263 265 269 272 271 274 277 281 283 284 282 282 282 281 279 279 282 283 285 287 289 288 284 277 267 261 259 257 257 257 259 264 267 263 260 258 260 261 261 262 262 263 264 264 262
260 263 265 264 261 263 265 268 270 272 272 276 280 283 285 282 282 282 283 281 282 283 286 287 289 288 285 278 273 269 266 264 262 264 266 266 265 264 262 263 263 264 264 265 266 265 267 267 265
265 269 268 266 261 263 266 266 268 268 266 268 274 276 280 283 282 280 281 281 281 283 285 287 288 287 285 281 279 276 274 273 272 271 272 271 268 265 263 265 265 266 268 269 268 269 268 268 266
263 268 273 272 267 264 269 268 269 269 267 270 273 280 282 281 283 283 281 281 282 282 283 284 287 285 285 286 284 279 278 278 280 280 278 276 272 269 267 268 269 267 267 268 270 271 269 268 267
258 266 278 279 274 273 269 270 273 267 265 268 269 271 275 276 277 281 280 279 281 281 282 284 285 286 287 288 286 282 280 282 281 281 282 280 276 274 273 273 271 270 270 270 272 270 273 271 266
256 269 277 277 279 278 271 268 271 272 272 269 270 273 274 277 280 276 277 278 280 280 282 284 284 284 286 286 286 285 285 287 286 285 283 281 280 278 278 275 272 270 271 272 270 270 270 269 267
261 266 274 273 273 276 271 270 273 275 274 273 274 274 275 275 275 274 276 276 276 277 280 282 283 283 283 283 285 286 287 288 288 287 285 282 282 282 282 280 276 273 273 272 271 271 267 266 267
258 262 272 273 270 272 272 272 275 278 278 274 272 274 271 271 272 274 274 276 277 278 281 282 281 283 283 284 284 286 287 287 286 286 287 283 280 281 281 279 278 277 277 274 272 272 268 265 267
252 261 270 273 277 277 275 277 275 274 275 276 273 274 271 272 276 274 271 276 278 279 280 282 280 280 282 282 282 284 287 288 288 286 285 282 281 281 280 281 279 278 277 275 275 274 269 268 268
254 260 267 271 274 277 278 280 280 281 280 282 279 277 279 277 279 278 273 276 278 279 279 279 279 280 280 281 282 283 286 286 285 285 283 282 281 281 280 280 278 276 276 275 274 272 270 268 267
256 261 264 267 272 277 279 281 279 281 282 282 280 277 278 279 279 277 276 274 276 279 279 279 282 282 282 282 283 283 284 284 284 283 282 280 280 279 278 278 275 274 275 274 271 270 270 268 267
259 262 264 266 271 273 276 281 282 284 282 279 278 278 277 279 279 278 275 273 274 278 279 278 280 282 283 284 285 284 284 284 284 284 284 282 281 280 279 275 274 275 273 272 271 270 269 268 269
259 261 263 264 269 272 278 281 281 283 283 281 278 277 279 280 279 275 274 275 274 275 275 276 277 280 281 283 285 285 285 285 284 284 284 284 283 280 277 275 273 274 274 273 270 270 268 268 269
255 258 261 265 274 281 284 282 278 283 285 285 282 279 280 280 279 276 275 275 274 274 274 276 278 279 279 279 282 284 284 285 285 285 284 284 284 283 278 275 273 273 273 273 272 271 270 270 270
253 252 259 262 266 271 275 276 280 284 284 284 283 282 282 282 280 276 275 274 273 274 277 280 278 278 277 277 280 283 284 284 285 284 284 283 282 281 279 276 274 273 273 272 272 271 270 269 269
253 251 259 262 262 264 275 280 280 283 282 283 282 282 282 282 281 276 273 272 273 276 279 282 279 277 275 276 279 282 283 285 284 284 284 283 281 279 277 275 275 274 273 270 271 272 270 269 270
255 253 255 258 258 257 264 276 280 287 286 283 280 279 280 281 280 276 273 272 273 276 279 280 278 276 276 275 278 283 283 284 284 283 283 282 280 278 276 273 273 273 272 271 271 272 271 272 272
257 255 254 256 259 261 263 268 278 285 285 284 283 280 280 281 280 277 274 273 275 277 278 277 276 275 277 278 279 282 284 283 281 281 282 280 279 278 276 274 272 271 271 271 270 271 272 272 271
259 258 257 258 260 261 266 271 278 282 283 283 284 282 281 280 279 277 276 276 276 277 278 276 275 274 276 280 281 281 283 283 282 280 280 280 278 277 276 274 273 272 272 272 271 270 271 271 271
Height
5854 5854 5854 5855 5856 5856 5855 5855 5855 5855 5856 5856 5856 5856 5857 5858 5860 5862 5860 5860 5861 5862 5862 5863 5864 5865 5865 5866 5867 5867 5868 5868 5869 5869 5870 5871 5871 5872 5872 5873 5873 5874 5874 5874 5875 5875 5876 5877 5877
5853 5854 5855 5855 5855 5854 5855 5854 5855 5855 5855 5855 5855 5856 5856 5857 5858 5858 5858 5859 5860 5861 5861 5862 5863 5863 5864 5865 5865 5866 5866 5867 5868 5868 5869 5870 5870 5871 5871 5872 5873 5873 5874 5874 5874 5875 5876 5876 5877
5853 5853 5854 5854 5854 5854 5854 5854 5854 5854 5854 5854 5855 5855 5856 5856 5857 5857 5857 5858 5859 5859 5860 5861 5861 5862 5863 5863 5864 5864 5865 5866 5866 5867 5868 5868 5869 5870 5871 5871 5872 5872 5873 5873 5874 5874 5875 5876 5876
5852 5853 5854 5854 5853 5853 5853 5853 5853 5853 5854 5854 5854 5854 5854 5855 5855 5856 5856 5857 5858 5858 5859 5859 5859 5860 5860 5861 5861 5862 5863 5864 5865 5866 5866 5867 5868 5869 5870 5870 5871 5871 5872 5872 5873 5873 5874 5875 5875
5852 5853 5853 5852 5852 5852 5852 5852 5853 5853 5853 5853 5853 5854 5854 5854 5854 5855 5855 5856 5856 5857 5857 5857 5858 5858 5858 5858 5858 5859 5860 5862 5863 5864 5865 5866 5867 5867 5868 5869 5869 5870 5870 5871 5871 5872 5873 5873 5874
5852 5852 5852 5852 5852 5852 5852 5852 5852 5852 5852 5852 5853 5853 5853 5853 5854 5854 5854 5854 5855 5855 5855 5856 5856 5856 5856 5854 5853 5854 5857 5860 5861 5862 5863 5864 5865 5866 5866 5867 5868 5868 5869 5869 5870 5871 5871 5872 5872
5851 5851 5851 5851 5851 5852 5852 5851 5852 5852 5852 5852 5852 5853 5853 5853 5853 5853 5853 5853 5853 5854 5854 5854 5855 5854 5854 5852 5850 5851 5855 5857 5859 5860 5861 5862 5863 5864 5865 5865 5866 5867 5867 5868 5868 5869 5870 5870 5871
5850 5851 5850 5850 5850 5851 5851 5851 5851 5851 5851 5851 5852 5852 5852 5853 5852 5852 5852 5853 5853 5853 5853 5853 5853 5853 5853 5852 5852 5852 5854 5856 5857 5858 5859 5860 5861 5862 5863 5863 5864 5865 5865 5866 5867 5867 5868 5868 5869
5849 5850 5849 5849 5850 5850 5850 5850 5851 5851 5851 5851 5851 5851 5852 5852 5852 5852 5852 5852 5852 5852 5852 5852 5852 5852 5852 5852 5852 5853 5853 5855 5856 5857 5858 5858 5859 5860 5861 5861 5862 5863 5863 5864 5864 5865 5866 5866 5867
5848 5848 5849 5849 5849 5849 5849 5850 5850 5850 5850 5850 5850 5850 5850 5851 5851 5851 5851 5851 5851 5851 5851 5851 5851 5851 5851 5851 5851 5852 5852 5854 5854 5855 5856 5857 5857 5858 5858 5859 5860 5861 5861 5862 5862 5863 5863 5864 5864
5847 5847 5847 5848 5848 5848 5848 5849 5849 5849 5849 5849 5849 5849 5849 5849 5850 5850 5850 5850 5850 5850 5850 5850 5850 5850 5850 5851 5851 5851 5852 5853 5853 5854 5854 5854 5855 5856 5856 5857 5858 5858 5859 5860 5860 5861 5861 5862 5862
5846 5846 5846 5847 5847 5847 5847 5847 5848 5848 5848 5848 5848 5848 5848 5848 5848 5849 5849 5849 5849 5849 5849 5849 5849 5849 5850 5850 5850 5851 5851 5851 5852 5852 5853 5853 5853 5854 5855 5855 5856 5856 5857 5857 5858 5858 5859 5859 5860
5844 5845 5845 5846 5846 5846 5846 5846 5847 5847 5847 5847 5847 5847 5847 5847 5847 5847 5848 5848 5848 5848 5848 5848 5848 5848 5849 5849 5849 5850 5850 5850 5851 5851 5851 5851 5852 5852 5853 5854 5854 5854 5855 5856 5856 5856 5856 5857 5857
5843 5843 5844 5844 5844 5844 5845 5845 5845 5845 5845 5846 5846 5846 5846 5846 5846 5846 5846 5847 5847 5847 5847 5847 5847 5848 5848 5848 5848 5848 5849 5849 5849 5849 5849 5850 5850 5850 5851 5852 5852 5852 5853 5853 5854 5854 5854 5854 5855
5842 5842 5843 5843 5843 5842 5843 5844 5844 5844 5844 5844 5844 5844 5845 5845 5845 5845 5845 5846 5846 5846 5846 5846 5846 5846 5847 5847 5847 5847 5847 5848 5848 5848 5848 5848 5848 5849 5849 5849 5850 5850 5850 5851 5851 5851 5852 5852 5852
5840 5841 5842 5842 5841 5841 5843 5842 5842 5842 5843 5843 5843 5843 5843 5843 5843 5844 5844 5844 5845 5845 5845 5845 5845 5845 5845 5845 5846 5846 5846 5846 5846 5846 5846 5846 5846 5847 5847 5847 5848 5848 5848 5848 5849 5849 5849 5849 5850
5839 5840 5840 5840 5840 5840 5840 5840 5840 5841 5841 5841 5842 5842 5842 5842 5842 5842 5842 5843 5843 5843 5844 5844 5844 5844 5844 5844 5844 5844 5844 5844 5844 5844 5844 5844 5844 5845 5845 5845 5845 5846 5846 5846 5846 5847 5847 5847 5848
5838 5838 5838 5839 5839 5839 5838 5838 5839 5839 5840 5840 5840 5840 5840 5841 5841 5841 5841 5841 5842 5842 5842 5842 5842 5842 5843 5842 5842 5843 5843 5842 5842 5842 5842 5842 5842 5842 5843 5843 5843 5844 5844 5844 5844 5844 5845 5845 5845
5837 5837 5837 5837 5837 5837 5837 5837 5837 5837 5837 5838 5838 5838 5838 5839 5839 5839 5839 5839 5840 5840 5840 5840 5840 5840 5841 5841 5841 5841 5841 5840 5840 5840 5840 5840 5840 5840 5840 5841 5841 5841 5842 5842 5842 5842 5842 5843 5843
5835 5835 5835 5835 5835 5835 5835 5835 5835 5835 5836 5836 5836 5836 5836 5836 5837 5837 5837 5837 5838 5838 5838 5838 5838 5838 5838 5839 5839 5839 5838 5838 5838 5838 5838 5838 5838 5838 5838 5838 5839 5839 5839 5839 5839 5840 5840 5840 5841
5833 5833 5833 5834 5833 5833 5833 5834 5833 5833 5834 5834 5834 5834 5834 5834 5835 5835 5835 5835 5836 5836 5836 5836 5836 5836 5836 5836 5836 5836 5836 5836 5836 5835 5835 5835 5835 5835 5835 5836 5836 5836 5836 5837 5837 5837 5837 5837 5838
5830 5831 5831 5831 5832 5831 5832 5832 5832 5831 5832 5832 5832 5832 5832 5832 5832 5832 5833 5833 5833 5833 5833 5834 5833 5833 5834 5834 5834 5833 5833 5833 5833 5832 5832 5832 5832 5832 5832 5832 5833 5833 5833 5834 5834 5834 5834 5835 5835
5828 5829 5829 5829 5829 5830 5830 5830 5830 5829 5829 5829 5830 5830 5830 5830 5830 5830 5830 5830 5830 5830 5830 5831 5831 5831 5831 5831 5830 5830 5830 5829 5829 5829 5829 5829 5829 5829 5829 5829 5829 5829 5830 5830 5830 5831 5831 5831 5832
5826 5827 5827 5827 5827 5828 5828 5828 5827 5826 5827 5826 5826 5827 5827 5827 5827 5827 5827 5827 5827 5827 5827 5827 5828 5828 5827 5827 5827 5826 5826 5826 5825 5825 5825 5825 5824 5824 5824 5825 5825 5825 5826 5826 5826 5827 5827 5828 5828
5824 5825 5825 5825 5825 5826 5826 5825 5825 5824 5824 5824 5824 5824 5824 5823 5823 5823 5823 5823 5824 5824 5824 5824 5824 5824 5824 5823 5822 5822 5822 5822 5821 5821 5821 5820 5820 5820 5820 5820 5821 5821 5822 5822 5822 5822 5823 5824 5824
5821 5822 5823 5823 5823 5823 5823 5822 5823 5822 5822 5821 5821 5821 5821 5820 5820 5820 5820 5820 5820 5820 5820 5820 5820 5819 5819 5819 5819 5818 5818 5818 5817 5817 5816 5816 5816 5816 5816 5816 5816 5816 5817 5817 5818 5818 5818 5819 5819
5818 5818 5819 5820 5819 5820 5821 5820 5819 5818 5818 5818 5818 5817 5817 5817 5817 5816 5816 5816 5816 5816 5815 5815 5815 5815 5815 5815 5814 5814 5813 5813 5812 5812 5812 5811 5811 5811 5811 5811 5811 5812 5812 5813 5813 5813 5814 5814 5815
5814 5815 5816 5816 5816 5816 5818 5816 5815 5815 5815 5814 5814 5813 5813 5813 5813 5812 5812 5812 5812 5811 5811 5811 5810 5810 5810 5810 5810 5809 5809 5808 5807 5807 5807 5806 5806 5806 5806 5806 5806 5806 5807 5807 5808 5808 5809 5809 5810
5810 5811 5811 5812 5813 5813 5813 5815 5812 5812 5811 5810 5809 5809 5809 5808 5808 5808 5808 5807 5807 5807 5806 5806 5805 5805 5805 5805 5805 5804 5804 5803 5802 5802 5801 5801 5801 5800 5800 5800 5801 5801 5802 5802 5802 5803 5803 5804 5804
5805 5806 5807 5808 5808 5808 5808 5811 5808 5807 5807 5806 5805 5804 5804 5803 5803 5803 5802 5802 5802 5801 5801 5800 5800 5800 5800 5799 5799 5799 5798 5798 5797 5796 5796 5795 5795 5795 5794 5794 5795 5795 5796 5796 5797 5797 5797 5798 5798